Regional Weather Roundup
Issued by NWS

Home | Current Version | Previous Version | Graphics & Text | Print | Product List | Glossary On
Versions: 1 2 3 4 5 6 7 8 9 10 11 12 13 14 15 16 17 18 19 20 21 22 23 24 25 26 27 28 29 30 31 32 33 34 35 36 37 38 39 40 41 42 43 44 45 46 47 48 49 50
000
ASUS43 KDMX 221706
RWRIA

WEATHER ROUNDUP FOR IOWA
NATIONAL WEATHER SERVICE DES MOINES IA
1100 AM CST SUN JAN 22 2017

NOTE: "FAIR" INDICATES FEW OR NO CLOUDS BELOW 12,000 FEET WITH NO
SIGNIFICANT WEATHER AND/OR OBSTRUCTIONS TO VISIBILITY.

* - THESE STATIONS ARE NOT NWS STATIONS...THUS NOT UNDER NWS
QUALITY CONTROL.  THEY ALSO DO NOT REPORT WEATHER SUCH
AS PRECIPITATION OR FOG.

IAZ001>003-012>014-020>022-031>034-043>046-221800-
   NORTHWEST IOWA

CITY           SKY/WX    TMP DP  RH WIND       PRES   REMARKS
CARROLL *      CLOUDY    34  34 100 NW13G18   29.74S FOG     WCI  25
CHEROKEE *     CLOUDY    35  34  98 NW8       29.77R FOG     WCI  28
DENISON *      CLOUDY    34  32  93 N9        29.75R FOG     WCI  26
LE MARS *      CLOUDY    36  32  87 NW8       29.80R WCI  29
ORANGE CITY *  CLOUDY    34  34 100 NW8       29.78R FOG     WCI  27
SHELDON *      CLOUDY    34  34 100 NW8       29.76R FOG     WCI  27
SIOUX CITY     CLOUDY    36  32  85 NW15      29.79R WCI  27
SPENCER          N/A    N/A N/A N/A MISG      29.75R
STORM LAKE *   LGT SNOW  34  32  93 NW10      29.75R WCI  26
$$

IAZ055>058-069>071-079>083-090>094-221800-
   SOUTHWEST IOWA

CITY           SKY/WX    TMP DP  RH WIND       PRES   REMARKS
ATLANTIC *     CLOUDY    34  34 100 NW10      29.75S WCI  26
AUDUBON *      CLOUDY    34  32  93 NW12      29.75S FOG     WCI  25
CLARINDA *     CLOUDY    34  34 100 N10       29.78R WCI  26
COUNCIL BLFS * CLOUDY    34  34 100 NW9       29.78R WCI  26
CRESTON *      CLOUDY    34  34 100 NW10      29.74S WCI  26
HARLAN  *      CLOUDY    34  34 100 NW13      29.79R WCI  25
LAMONI         CLOUDY    33  32  96 N10       29.72R WCI  25
RED OAK *      CLOUDY    34  32  93 N12       29.77R WCI  25
SHENANDOAH *   CLOUDY    34  32  93 NW8       29.78S WCI  27
$$

IAZ047>049-059>061-072>074-084-221800-
   CENTRAL IOWA

CITY           SKY/WX    TMP DP  RH WIND       PRES   REMARKS
AMES           CLOUDY    35  35 100 NW13      29.72S FOG     WCI  26
ANKENY *       CLOUDY    36  34  93 NW8       29.74R FOG     WCI  29
BOONE *        CLOUDY    34  34 100 NW7       29.71S FOG     WCI  28
CHARITON *     CLOUDY    34  34 100 NW12      29.72R WCI  25
DES MOINES     CLOUDY    36  34  92 NW9       29.73R FOG     WCI  29
GRINNELL*      CLOUDY    33  33  99 W6        29.71S FOG     WCI  28
KNOXVILLE *    CLOUDY    34  34 100 NW9       29.71S WCI  26
MARSHALLTOWN   CLOUDY    35  35 100 NW9       29.70R FOG     WCI  28
NEWTON *       CLOUDY    34  34 100 NW6       29.71S FOG     WCI  29
PELLA *        CLOUDY    35  34  96 NW7       29.73S FOG     WCI  29
PERRY *        CLOUDY    35  34  96 NW8       29.74R FOG     WCI  28
$$

IAZ004>006-015-016-023>025-035-036-221800-
   NORTH CENTRAL IOWA

CITY           SKY/WX    TMP DP  RH WIND       PRES   REMARKS
ALGONA *       CLOUDY    36  36 100 NW8       29.73R FOG     WCI  29
CLARION *      FOG       34  34 100 N7        29.73R VSB 3/4 WCI  28
ESTHERVILLE    CLOUDY    34  34 100 NW14      29.73R FOG     WCI  25
FORT DODGE *   CLOUDY    34  32  93 NW5       29.75R WCI  30
MASON CITY       N/A     34  33  96 NW8       29.72R FOG     WCI  27
FOREST CITY *  FOG       34  34 100 NW7       29.72R VSB 1/2 WCI  28
WEBSTER CITY * FOG       34 N/A N/A NW12      29.71R VSB<1/4 WCI  25
IOWA FALLS *   CLOUDY    35  35  98 NW7       29.72R FOG     WCI  29
$$

IAZ007>011-017>019-026>030-037>042-050>054-066-221800-
   NORTHEAST IOWA

CITY           SKY/WX    TMP DP  RH WIND       PRES   REMARKS
CEDAR RAPIDS   CLOUDY    33  32  96 NW8       29.69R FOG     WCI  26
CHARLES CITY * CLOUDY    34  34 100 NW6       29.71R FOG     WCI  29
CLINTON *      CLOUDY    32  32 100 CALM      29.69R
DECORAH *      CLOUDY    34  34 100 NW5       29.67S FOG     WCI  30
DUBUQUE        CLOUDY    37  36  96 CALM      29.67S
MONTICELLO *   FOG       36  36 100 CALM      29.69S VSB 3/4
OELWEIN *      CLOUDY    34  34 100 NW5       29.70R FOG     WCI  30
WATERLOO       CLOUDY    35  32  88 MISG      29.70R
$$

IAZ064-065-067-068-078-221800-
   EAST CENTRAL IOWA

CITY           SKY/WX    TMP DP  RH WIND       PRES   REMARKS
DAVENPORT      CLOUDY    32  31  96 NW7       29.68S WCI  26
IOWA CITY      CLOUDY    36  34  92 NW9       29.72R FOG     WCI  29
MUSCATINE *    CLOUDY    37  36  93 NW8       29.70S FOG     WCI  31
QUAD CITIES    CLOUDY    39  36  89 CALM      29.67S FOG
$$

IAZ062-063-075>077-085>089-095>099-221800-
   SOUTHEAST IOWA

CITY           SKY/WX    TMP DP  RH WIND       PRES   REMARKS
BURLINGTON     CLOUDY    39  38  96 N9        29.67R FOG     WCI  33
FAIRFIELD *    CLOUDY    34  34 100 NW13      29.70S FOG     WCI  25
FORT MADISON * LGT RAIN  39  37  93 NW9       29.68S WCI  33
KEOKUK *       CLOUDY    41 N/A N/A N10       29.66F FOG
OSKALOOSA *    CLOUDY    33  33  99 NW5       29.72S WCI  28
CENTERVILLE *  CLOUDY    32  32 100 CALM      29.73S
OTTUMWA        CLOUDY    36  32  85 N12       29.71S WCI  28
WASHINGTON *   FOG       34  34 100 NW12G17   29.71  VSB 1/4 WCI  25
$$

ABBREVIATIONS USED IN REMARKS
   TC - TEMPERATURES IN CELSIUS
  WCI - WIND CHILL INDEX
   HX - HEAT INDEX
  VSB - VISIBILITY
$$





USA.gov is the U.S. government's official web portal to all federal, state and local government web resources and services.